Wind_Speed
12 10 10 8 6 6 3 2 3 4 5 6 7 10 12 14 16 16 16 15 17 17 17 17 17 16 15 14 13 12 12 11 11 10 10 9 9 8 8 7 7 6 6 6
13 11 9 9 8 7 5 4 4 3 5 5 5 7 9 12 13 14 15 15 15 15 15 16 16 16 15 15 14 13 13 12 12 11 11 10 9 9 8 8 8 7 7 6
14 12 11 10 9 8 7 7 6 4 5 6 6 8 7 9 10 12 14 14 14 14 15 15 15 15 14 14 14 13 13 13 13 12 12 11 11 10 10 10 9 9 8 7
16 14 14 13 13 10 9 8 8 6 6 6 6 9 7 7 9 10 11 12 13 14 15 14 14 14 13 13 14 13 13 13 13 13 12 12 12 12 11 10 10 10 9 9
18 17 16 15 14 12 11 10 9 7 7 7 7 11 8 4 6 8 10 11 12 13 14 14 14 13 12 12 12 12 13 13 13 13 13 12 11 11 11 10 10 10 10 10
19 17 17 16 15 13 13 10 8 8 9 8 6 11 10 7 6 8 7 9 10 12 13 13 13 13 12 11 11 11 11 12 12 12 12 12 12 11 10 10 10 10 10 10
21 20 19 17 16 15 14 11 10 10 11 10 9 9 10 8 6 7 7 7 8 10 11 13 13 13 12 11 10 11 11 11 11 12 12 12 12 11 11 11 11 11 11 11
19 20 19 18 18 17 15 14 14 13 13 11 11 10 9 9 7 6 7 7 8 9 10 12 13 12 11 10 10 10 10 10 11 11 11 12 12 12 12 12 12 12 11 12
19 19 18 19 18 18 17 17 15 16 15 15 13 9 9 10 9 8 9 7 8 8 8 10 11 11 10 10 9 9 10 10 10 11 11 11 12 12 12 12 13 13 13 13
22 20 19 19 20 20 19 17 15 16 16 14 12 11 11 10 7 9 10 9 8 9 8 9 11 11 10 10 10 10 10 10 10 10 11 11 12 12 12 11 12 14 15 15
24 22 20 21 21 20 20 19 19 18 16 14 14 14 12 12 10 8 10 11 9 9 9 8 10 10 9 9 10 10 11 10 10 11 11 12 12 12 12 13 13 14 15 16
28 25 23 23 22 21 21 20 19 19 19 17 16 17 12 10 10 10 10 12 10 10 9 9 9 9 9 9 11 11 11 11 11 11 12 12 13 13 13 13 15 15 16 18
29 29 26 23 23 22 23 22 21 19 19 18 17 19 16 14 11 12 13 13 11 11 10 9 9 10 9 9 10 11 11 11 12 12 12 13 14 15 15 15 16 17 18 18
29 30 29 24 22 22 22 22 23 22 21 20 20 21 19 17 15 14 14 14 13 13 12 11 10 11 11 11 11 11 12 12 12 12 13 13 15 16 16 16 17 18 18 19
30 30 29 27 23 22 22 21 21 22 23 24 23 23 23 20 17 16 17 16 16 16 15 13 12 12 12 12 12 12 12 13 13 13 14 15 15 16 17 18 18 19 19 20
30 30 30 29 27 25 23 23 23 24 23 24 24 24 24 22 22 21 21 21 19 19 17 16 15 15 15 14 14 14 14 15 15 15 15 16 16 17 18 18 19 20 20 21
29 30 30 29 28 26 27 25 24 24 25 26 26 25 23 24 25 25 25 24 21 21 21 20 19 18 18 17 17 17 16 17 17 17 17 17 18 18 19 20 20 21 22 22
30 30 30 29 27 29 28 26 25 24 24 27 28 28 26 27 29 28 28 27 26 24 23 22 23 22 21 21 20 19 19 19 19 19 19 19 20 20 21 21 22 22 23 24
29 29 29 29 28 28 26 27 26 25 27 28 29 29 28 29 30 30 30 29 27 26 26 26 25 24 24 23 23 22 21 21 21 21 22 22 22 22 23 23 23 24 25 26
30 30 29 29 29 28 27 28 27 27 30 30 30 30 30 30 30 31 31 30 29 28 28 27 28 27 26 26 25 25 25 24 24 24 24 24 24 25 25 26 26 27 27 27
30 31 31 30 30 30 30 29 28 30 33 32 33 33 32 33 33 32 31 30 30 29 29 29 29 29 28 28 27 27 26 26 26 26 26 26 26 27 27 28 28 28 29 29
29 30 30 31 31 32 32 31 31 31 32 32 33 33 33 33 33 33 33 31 31 31 31 31 30 30 29 29 29 29 28 27 27 27 28 27 28 28 29 29 29 29 30 31
28 29 29 30 31 33 34 34 32 33 33 33 33 33 34 34 33 33 33 33 33 33 32 32 31 31 32 32 31 31 30 29 29 29 29 29 30 30 30 30 30 31 32 33
30 30 32 33 34 33 32 33 33 33 34 36 36 36 36 36 35 35 35 35 35 34 34 33 33 33 33 33 32 32 32 31 30 30 31 31 31 32 32 33 33 33 33 34
30 31 32 34 35 35 34 34 34 34 35 36 36 36 36 36 36 36 37 36 36 36 35 34 34 35 34 34 33 33 33 34 33 33 33 33 34 34 34 34 35 35 36 35
33 33 32 34 36 37 38 37 36 36 36 36 36 35 36 37 37 38 37 37 37 37 36 35 35 35 35 35 35 35 35 35 34 35 35 36 36 36 36 37 38 38 38 37
Wind_Direction
186 188 201 215 210 225 233 191 284 316 337 2 10 8 20 24 22 25 28 30 31 33 35 36 37 37 37 37 39 41 44 45 44 42 43 43 46 47 46 47 49 47 40 36
197 206 213 214 222 230 236 234 243 285 318 349 341 345 4 16 17 17 19 26 29 29 31 34 35 36 38 38 40 42 44 46 46 45 43 44 50 50 45 44 43 40 37 32
208 212 218 220 215 223 227 249 246 259 303 313 322 323 345 10 10 10 14 21 27 26 27 30 32 34 37 39 41 43 43 43 43 43 43 43 44 46 44 42 41 36 32 27
215 216 220 221 219 220 219 229 242 254 277 281 290 300 320 9 360 2 6 14 21 24 24 25 27 30 35 38 40 43 43 43 43 42 42 43 43 42 41 40 36 31 25 21
217 220 222 221 219 223 230 226 232 242 265 277 295 297 304 348 349 359 356 13 17 19 21 22 23 24 29 35 38 38 38 40 41 39 38 38 38 38 37 35 31 26 20 15
217 220 221 221 221 224 230 233 238 242 252 260 267 285 298 310 325 340 360 17 13 15 16 18 19 21 23 28 31 33 34 36 36 35 34 33 32 31 31 30 26 22 17 11
218 219 221 223 220 225 228 228 244 255 257 249 243 259 276 292 316 326 346 359 6 8 9 10 15 16 18 21 25 28 31 32 32 32 31 30 29 30 28 24 20 16 13 10
224 227 229 228 222 221 229 225 238 251 257 257 243 244 252 276 294 310 323 338 345 351 1 5 6 7 10 12 16 20 24 25 25 24 25 26 24 24 22 19 17 13 9 5
220 231 231 234 229 220 224 231 240 253 266 274 268 255 262 271 286 299 306 311 320 330 343 354 358 1 4 7 9 10 14 16 17 18 17 16 15 14 13 13 12 9 4 360
212 223 223 232 233 226 222 226 235 246 254 262 264 268 264 260 272 292 299 304 309 320 330 347 351 356 360 2 3 4 5 6 8 9 7 5 5 3 1 2 2 3 1 357
214 221 223 225 230 227 227 226 228 235 242 259 269 264 263 275 274 274 289 294 298 306 321 333 344 347 350 353 355 355 355 356 356 357 358 357 356 355 352 352 353 353 354 351
217 219 223 228 233 231 227 230 235 238 237 242 262 267 268 281 284 280 289 292 297 298 308 318 325 332 337 342 348 351 348 347 346 347 350 351 349 347 347 345 347 348 347 346
220 220 220 224 231 233 232 227 227 237 247 250 256 265 269 273 265 265 277 281 287 290 294 301 308 315 321 326 336 343 343 341 340 339 340 340 339 339 341 342 340 341 342 343
221 223 219 220 228 233 237 233 228 227 236 245 249 258 265 270 266 263 270 273 278 279 283 291 297 299 305 314 319 327 332 334 334 333 332 331 332 333 333 333 335 336 338 339
221 224 222 216 221 228 234 234 231 231 233 239 245 254 253 256 258 262 265 268 269 270 276 279 285 289 295 302 307 313 318 323 325 325 324 324 325 327 328 328 329 330 332 333
223 224 225 223 221 227 233 235 235 236 237 241 247 254 253 250 253 256 258 263 266 267 272 274 276 280 284 288 294 301 306 310 313 314 315 317 319 320 322 323 325 326 327 328
224 226 227 228 229 231 228 231 236 239 239 242 246 249 250 253 255 257 259 260 264 266 268 271 274 275 276 278 283 288 295 299 304 306 306 309 312 314 315 315 317 320 323 324
228 228 229 230 231 235 234 234 234 238 241 240 241 243 247 250 257 258 261 264 263 264 265 267 269 270 271 273 277 281 286 290 295 299 301 304 305 307 309 310 312 314 317 319
232 231 231 231 235 240 241 240 239 240 242 243 245 247 250 252 256 259 260 262 262 263 263 263 266 268 269 271 274 276 280 285 288 291 294 297 300 303 305 307 309 311 312 314
234 234 233 233 234 237 242 243 241 242 245 245 247 249 251 252 254 257 259 261 261 263 263 262 263 265 266 268 271 273 277 281 285 287 289 293 297 298 299 302 305 308 307 308
236 235 234 235 238 239 240 241 242 243 246 249 250 251 251 252 254 257 260 261 261 262 263 262 262 264 266 267 269 272 275 279 282 285 286 289 292 296 297 299 301 303 304 305
240 239 237 236 239 239 241 241 241 246 250 250 252 254 253 254 255 255 257 258 259 260 261 261 262 263 265 267 268 270 273 276 279 282 284 287 291 293 295 297 300 301 303 304
236 237 236 238 241 243 243 243 244 246 248 250 251 252 253 253 254 255 255 256 257 258 260 261 262 264 265 266 267 269 270 271 275 279 282 285 288 292 295 298 300 301 303 303
238 237 237 239 243 246 247 247 246 247 251 252 252 253 253 254 255 256 256 257 258 259 260 261 263 264 265 266 268 269 270 271 273 276 279 282 285 288 291 294 297 298 299 301
236 237 238 241 244 247 250 251 251 252 253 254 253 253 254 254 255 256 256 256 257 258 259 261 263 264 265 267 268 269 271 271 272 274 277 280 283 286 288 291 293 296 298 299
237 239 241 243 244 245 247 251 253 254 255 255 257 257 256 255 255 256 257 256 257 258 259 261 263 264 265 267 269 269 271 270 270 272 275 278 281 283 286 288 291 294 296 298
Height
5926 5930 5930 5931 5933 5935 5936 5938 5938 5937 5937 5935 5934 5932 5930 5928 5926 5924 5922 5920 5917 5915 5913 5911 5909 5907 5906 5904 5902 5901 5899 5898 5897 5896 5895 5894 5893 5892 5891 5891 5890 5890 5889 5889
5926 5928 5930 5931 5933 5934 5936 5938 5937 5937 5937 5936 5934 5932 5931 5929 5928 5927 5924 5921 5920 5918 5916 5914 5912 5910 5908 5906 5905 5903 5902 5900 5899 5898 5896 5895 5894 5894 5893 5892 5891 5891 5890 5890
5924 5927 5929 5930 5933 5934 5935 5937 5937 5937 5937 5936 5934 5933 5931 5930 5929 5928 5926 5923 5922 5920 5918 5916 5914 5912 5910 5909 5907 5905 5904 5903 5901 5900 5898 5897 5896 5895 5894 5893 5892 5892 5891 5890
5922 5925 5927 5929 5931 5933 5934 5936 5936 5937 5937 5936 5934 5932 5930 5929 5929 5928 5926 5924 5922 5921 5919 5917 5916 5914 5912 5911 5909 5907 5906 5904 5903 5902 5900 5899 5898 5897 5896 5895 5894 5893 5892 5891
5919 5922 5924 5927 5929 5931 5932 5933 5934 5935 5935 5934 5933 5932 5929 5927 5928 5928 5927 5924 5923 5922 5920 5919 5917 5916 5914 5913 5911 5910 5908 5907 5905 5904 5902 5901 5899 5898 5897 5896 5895 5894 5893 5892
5916 5919 5921 5924 5927 5928 5930 5932 5933 5933 5934 5934 5934 5933 5929 5927 5927 5928 5927 5925 5925 5923 5922 5920 5918 5917 5915 5914 5913 5912 5910 5909 5907 5906 5904 5902 5901 5900 5899 5898 5896 5895 5894 5893
5913 5915 5918 5921 5924 5927 5928 5931 5932 5932 5931 5931 5931 5931 5930 5927 5927 5928 5927 5926 5925 5924 5923 5921 5918 5918 5917 5916 5914 5913 5912 5910 5909 5907 5906 5904 5902 5901 5900 5898 5897 5896 5894 5893
5910 5913 5915 5918 5921 5924 5926 5929 5931 5930 5929 5928 5927 5928 5928 5927 5927 5926 5927 5926 5926 5925 5923 5922 5921 5919 5918 5917 5915 5914 5913 5911 5910 5909 5907 5905 5904 5902 5901 5899 5898 5896 5895 5893
5908 5911 5914 5915 5917 5921 5923 5925 5928 5929 5928 5927 5925 5925 5926 5925 5925 5926 5926 5926 5925 5924 5923 5922 5921 5919 5918 5917 5916 5915 5913 5912 5911 5909 5908 5907 5905 5903 5902 5900 5899 5897 5895 5894
5904 5907 5910 5912 5914 5917 5919 5923 5925 5926 5926 5925 5925 5924 5923 5923 5922 5925 5925 5924 5923 5923 5922 5921 5921 5919 5918 5917 5916 5915 5914 5913 5911 5910 5909 5907 5906 5904 5902 5901 5899 5897 5895 5893
5899 5903 5906 5908 5909 5913 5916 5919 5921 5922 5924 5924 5923 5923 5920 5920 5920 5920 5922 5921 5921 5921 5921 5920 5920 5919 5918 5917 5916 5915 5914 5913 5911 5910 5909 5907 5906 5904 5902 5901 5899 5897 5895 5892
5893 5897 5901 5904 5907 5909 5912 5915 5918 5919 5920 5921 5922 5921 5917 5917 5919 5918 5919 5919 5918 5919 5919 5918 5918 5918 5917 5917 5916 5915 5913 5912 5911 5910 5908 5907 5906 5904 5902 5900 5899 5897 5894 5892
5887 5891 5895 5900 5904 5905 5907 5910 5913 5917 5918 5919 5920 5920 5917 5917 5916 5916 5918 5917 5917 5918 5918 5917 5917 5917 5916 5916 5915 5914 5913 5912 5910 5909 5908 5906 5905 5903 5901 5900 5898 5896 5893 5891
5881 5884 5889 5895 5898 5900 5902 5905 5908 5911 5913 5915 5915 5915 5914 5913 5913 5913 5914 5914 5915 5916 5915 5915 5916 5915 5915 5915 5914 5913 5912 5911 5910 5908 5907 5906 5904 5902 5900 5898 5897 5894 5892 5889
5874 5878 5883 5887 5891 5895 5897 5900 5903 5905 5907 5909 5910 5910 5910 5909 5909 5910 5910 5911 5912 5912 5912 5912 5913 5913 5913 5913 5912 5911 5910 5909 5908 5907 5906 5904 5902 5901 5899 5897 5894 5892 5890 5887
5867 5872 5876 5880 5884 5887 5891 5894 5897 5899 5901 5903 5904 5905 5905 5903 5905 5905 5907 5908 5908 5908 5909 5909 5909 5910 5911 5910 5910 5909 5908 5907 5906 5905 5903 5902 5900 5898 5896 5894 5892 5890 5887 5884
5862 5866 5870 5874 5878 5880 5884 5888 5891 5893 5895 5896 5897 5899 5899 5899 5898 5899 5901 5902 5903 5905 5905 5905 5906 5906 5907 5907 5906 5906 5905 5904 5903 5902 5901 5899 5897 5896 5894 5891 5889 5887 5884 5882
5856 5859 5864 5868 5872 5874 5880 5882 5884 5885 5887 5888 5889 5890 5891 5892 5893 5894 5896 5897 5898 5899 5900 5901 5901 5902 5902 5902 5902 5902 5901 5901 5900 5899 5897 5896 5894 5892 5890 5888 5885 5883 5881 5878
5850 5854 5858 5862 5865 5868 5872 5874 5877 5879 5880 5881 5882 5883 5885 5886 5887 5888 5889 5890 5892 5893 5894 5895 5896 5896 5897 5897 5897 5897 5896 5896 5895 5894 5893 5891 5890 5888 5886 5883 5881 5879 5876 5874
5844 5847 5852 5855 5858 5861 5865 5868 5869 5873 5872 5873 5875 5876 5878 5878 5880 5881 5882 5884 5885 5886 5888 5889 5890 5890 5891 5891 5891 5891 5891 5890 5890 5889 5887 5886 5885 5883 5881 5879 5876 5874 5871 5869
5837 5840 5844 5848 5850 5853 5856 5858 5861 5864 5863 5866 5867 5869 5870 5871 5873 5874 5875 5877 5878 5880 5881 5882 5883 5883 5884 5884 5884 5884 5884 5884 5883 5882 5881 5880 5879 5877 5875 5873 5871 5868 5866 5863
5830 5834 5837 5840 5843 5847 5847 5850 5853 5853 5855 5857 5858 5860 5861 5863 5864 5866 5867 5869 5871 5872 5873 5874 5875 5876 5877 5877 5877 5877 5877 5877 5876 5875 5874 5873 5872 5870 5868 5866 5864 5862 5859 5857
5823 5827 5830 5832 5835 5836 5838 5840 5842 5844 5846 5847 5849 5850 5852 5854 5855 5857 5859 5860 5862 5864 5865 5866 5867 5868 5868 5869 5868 5869 5869 5869 5868 5868 5867 5866 5864 5863 5861 5859 5857 5854 5852 5850
5815 5818 5821 5823 5825 5827 5829 5830 5832 5834 5836 5837 5839 5841 5842 5844 5846 5848 5850 5851 5853 5855 5856 5857 5858 5859 5860 5859 5859 5860 5860 5860 5860 5860 5859 5858 5857 5855 5854 5852 5849 5847 5844 5842
5807 5809 5813 5815 5817 5819 5820 5822 5824 5825 5826 5827 5828 5830 5832 5834 5837 5838 5840 5842 5843 5845 5847 5848 5849 5850 5850 5851 5851 5851 5851 5851 5851 5851 5850 5849 5848 5847 5845 5843 5841 5839 5836 5833
5799 5801 5804 5806 5808 5809 5811 5812 5814 5815 5817 5818 5819 5821 5822 5824 5826 5827 5829 5831 5833 5835 5837 5839 5839 5840 5841 5842 5842 5842 5842 5841 5841 5841 5840 5840 5839 5838 5836 5834 5833 5830 5828 5824